Time,TemperatureF,DewpointF,PressureIn,WindDirection,WindDirectionDegrees,WindSpeedMPH,WindSpeedGustMPH,Humidity,HourlyPrecipIn,Conditions,Clouds,dailyrainin,SolarRadiationWatts/m^2,SoftwareType,DateUTC
2014-09-18 00:09:00,66.6,41.0,29.56,WNW,290,10.0,16.0,39,0.00,,,0.00,0,weatherlink.com 1.10,2014-09-18 07:09:00,
2014-09-18 00:24:00,66.4,41.0,29.56,WNW,286,10.0,14.0,39,0.00,,,0.00,0,weatherlink.com 1.10,2014-09-18 07:24:00,
2014-09-18 00:39:00,66.6,41.0,29.56,WNW,284,9.0,15.0,40,0.00,,,0.00,0,weatherlink.com 1.10,2014-09-18 07:39:00,
2014-09-18 00:54:00,65.9,41.0,29.57,WNW,286,8.0,13.0,41,0.00,,,0.00,0,weatherlink.com 1.10,2014-09-18 07:54:00,
2014-09-18 01:09:00,65.9,42.0,29.56,WNW,285,8.0,12.0,42,0.00,,,0.00,0,weatherlink.com 1.10,2014-09-18 08:09:00,
2014-09-18 01:24:00,65.6,42.0,29.56,WNW,292,9.0,14.0,43,0.00,,,0.00,0,weatherlink.com 1.10,2014-09-18 08:24:00,
2014-09-18 01:39:00,65.3,42.0,29.56,WNW,284,13.0,16.0,43,0.00,,,0.00,0,weatherlink.com 1.10,2014-09-18 08:39:00,
2014-09-18 01:55:00,65.3,43.0,29.56,West,269,12.0,14.0,44,0.00,,,0.00,0,weatherlink.com 1.10,2014-09-18 08:55:00,
2014-09-18 02:09:00,65.4,43.0,29.57,West,278,14.0,20.0,44,0.00,,,0.00,0,weatherlink.com 1.10,2014-09-18 09:09:00,
2014-09-18 02:24:00,63.6,43.0,29.57,WNW,282,18.0,22.0,48,0.00,,,0.00,0,weatherlink.com 1.10,2014-09-18 09:24:00,
2014-09-18 02:39:00,62.4,44.0,29.57,WNW,284,19.0,24.0,51,0.00,,,0.00,0,weatherlink.com 1.10,2014-09-18 09:39:00,
2014-09-18 02:55:00,61.8,44.0,29.57,West,281,18.0,25.0,52,0.00,,,0.00,0,weatherlink.com 1.10,2014-09-18 09:55:00,
2014-09-18 03:10:00,61.3,44.0,29.57,WNW,291,15.0,26.0,54,0.00,,,0.00,0,weatherlink.com 1.10,2014-09-18 10:10:00,
2014-09-18 03:25:00,60.8,44.0,29.57,WNW,294,15.0,19.0,55,0.00,,,0.00,0,weatherlink.com 1.10,2014-09-18 10:25:00,
2014-09-18 03:40:00,61.1,44.0,29.58,West,268,15.0,20.0,54,0.00,,,0.00,0,weatherlink.com 1.10,2014-09-18 10:40:00,
2014-09-18 04:10:00,61.1,45.0,29.58,West,281,12.0,14.0,55,0.00,,,0.00,0,weatherlink.com 1.10,2014-09-18 11:10:00,
2014-09-18 04:25:00,61.3,44.0,29.58,WNW,289,7.0,15.0,54,0.00,,,0.00,0,weatherlink.com 1.10,2014-09-18 11:25:00,
2014-09-18 04:40:00,60.8,44.0,29.58,WNW,290,8.0,13.0,55,0.00,,,0.00,0,weatherlink.com 1.10,2014-09-18 11:40:00,
2014-09-18 04:55:00,60.3,44.0,29.59,WNW,290,3.0,11.0,56,0.00,,,0.00,0,weatherlink.com 1.10,2014-09-18 11:55:00,
2014-09-18 05:10:00,61.1,44.0,29.59,WNW,295,5.0,11.0,54,0.00,,,0.00,0,weatherlink.com 1.10,2014-09-18 12:10:00,
2014-09-18 05:25:00,61.8,44.0,29.59,WSW,250,6.0,10.0,52,0.00,,,0.00,0,weatherlink.com 1.10,2014-09-18 12:25:00,
2014-09-18 05:40:00,62.2,44.0,29.59,WNW,290,8.0,18.0,51,0.00,,,0.00,0,weatherlink.com 1.10,2014-09-18 12:40:00,
2014-09-18 05:55:00,61.8,44.0,29.59,WSW,242,10.0,19.0,52,0.00,,,0.00,0,weatherlink.com 1.10,2014-09-18 12:55:00,
2014-09-18 06:10:00,61.3,43.0,29.60,West,260,12.0,15.0,52,0.00,,,0.00,0,weatherlink.com 1.10,2014-09-18 13:10:00,
2014-09-18 06:25:00,61.4,44.0,29.61,WSW,246,7.0,18.0,53,0.00,,,0.00,0,weatherlink.com 1.10,2014-09-18 13:25:00,
2014-09-18 06:40:00,61.5,44.0,29.61,West,274,4.0,14.0,53,0.00,,,0.00,0,weatherlink.com 1.10,2014-09-18 13:40:00,
2014-09-18 06:55:00,60.5,44.0,29.62,WNW,286,8.0,14.0,54,0.00,,,0.00,12,weatherlink.com 1.10,2014-09-18 13:55:00,
2014-09-18 07:10:00,60.6,44.0,29.63,West,275,5.0,20.0,55,0.00,,,0.00,23,weatherlink.com 1.10,2014-09-18 14:10:00,
2014-09-18 07:25:00,60.4,44.0,29.62,West,277,8.0,13.0,55,0.00,,,0.00,28,weatherlink.com 1.10,2014-09-18 14:25:00,
2014-09-18 07:40:00,60.8,44.0,29.63,West,271,6.0,9.0,54,0.00,,,0.00,44,weatherlink.com 1.10,2014-09-18 14:40:00,
2014-09-18 07:55:00,61.2,44.0,29.63,West,266,6.0,12.0,53,0.00,,,0.00,162,weatherlink.com 1.10,2014-09-18 14:55:00,
2014-09-18 08:10:00,61.7,44.0,29.64,West,265,6.0,7.0,53,0.00,,,0.00,223,weatherlink.com 1.10,2014-09-18 15:10:00,
2014-09-18 08:25:00,62.5,44.0,29.64,WSW,240,3.0,9.0,51,0.00,,,0.00,272,weatherlink.com 1.10,2014-09-18 15:25:00,
2014-09-18 08:40:00,63.1,44.0,29.65,WSW,243,1.0,7.0,50,0.00,,,0.00,323,weatherlink.com 1.10,2014-09-18 15:40:00,
2014-09-18 08:55:00,63.7,45.0,29.65,West,270,2.0,8.0,50,0.00,,,0.00,374,weatherlink.com 1.10,2014-09-18 15:55:00,
2014-09-18 09:11:00,65.2,45.0,29.65,West,271,0.0,4.0,48,0.00,,,0.00,434,weatherlink.com 1.10,2014-09-18 16:11:00,
2014-09-18 09:26:00,66.1,45.0,29.65,SW,214,7.0,10.0,46,0.00,,,0.00,520,weatherlink.com 1.10,2014-09-18 16:26:00,
2014-09-18 09:41:00,67.8,44.0,29.65,ESE,123,7.0,18.0,43,0.00,,,0.00,582,weatherlink.com 1.10,2014-09-18 16:41:00,
2014-09-18 09:56:00,68.5,44.0,29.65,SSW,199,2.0,12.0,42,0.00,,,0.00,712,weatherlink.com 1.10,2014-09-18 16:56:00,
2014-09-18 10:11:00,67.9,44.0,29.65,SW,223,6.0,10.0,42,0.00,,,0.00,197,weatherlink.com 1.10,2014-09-18 17:11:00,
2014-09-18 10:26:00,67.9,44.0,29.64,SE,142,4.0,11.0,42,0.00,,,0.00,229,weatherlink.com 1.10,2014-09-18 17:26:00,
2014-09-18 10:41:00,67.3,45.0,29.64,WSW,254,12.0,15.0,45,0.00,,,0.00,221,weatherlink.com 1.10,2014-09-18 17:41:00,
2014-09-18 10:56:00,68.1,45.0,29.64,West,277,17.0,18.0,43,0.00,,,0.00,229,weatherlink.com 1.10,2014-09-18 17:56:00,
2014-09-18 11:11:00,67.7,45.0,29.64,SW,221,13.0,19.0,44,0.00,,,0.00,221,weatherlink.com 1.10,2014-09-18 18:11:00,
2014-09-18 11:26:00,68.2,45.0,29.65,West,269,10.0,19.0,43,0.00,,,0.00,225,weatherlink.com 1.10,2014-09-18 18:26:00,
2014-09-18 11:41:00,68.4,44.0,29.65,SW,226,13.0,18.0,41,0.00,,,0.00,167,weatherlink.com 1.10,2014-09-18 18:41:00,
2014-09-18 11:56:00,69.4,44.0,29.65,WSW,238,5.0,21.0,40,0.00,,,0.00,970,weatherlink.com 1.10,2014-09-18 18:56:00,
2014-09-18 12:11:00,70.2,43.0,29.65,SW,217,14.0,26.0,38,0.00,,,0.00,304,weatherlink.com 1.10,2014-09-18 19:11:00,
2014-09-18 12:26:00,70.9,43.0,29.64,WSW,256,11.0,17.0,37,0.00,,,0.00,951,weatherlink.com 1.10,2014-09-18 19:26:00,
2014-09-18 12:41:00,70.6,44.0,29.64,West,270,14.0,18.0,39,0.00,,,0.00,213,weatherlink.com 1.10,2014-09-18 19:41:00,
2014-09-18 12:56:00,69.6,45.0,29.64,West,263,8.0,19.0,41,0.00,,,0.00,707,weatherlink.com 1.10,2014-09-18 19:56:00,
2014-09-18 13:11:00,70.1,45.0,29.64,West,274,16.0,20.0,41,0.00,,,0.00,584,weatherlink.com 1.10,2014-09-18 20:11:00,
2014-09-18 13:26:00,69.4,45.0,29.64,West,274,16.0,22.0,42,0.00,,,0.00,295,weatherlink.com 1.10,2014-09-18 20:26:00,
2014-09-18 13:41:00,70.5,45.0,29.64,West,267,15.0,26.0,40,0.00,,,0.00,575,weatherlink.com 1.10,2014-09-18 20:41:00,
2014-09-18 13:56:00,70.6,46.0,29.63,WNW,284,21.0,28.0,41,0.00,,,0.00,494,weatherlink.com 1.10,2014-09-18 20:56:00,
2014-09-18 14:11:00,71.1,45.0,29.63,West,277,18.0,24.0,40,0.00,,,0.00,478,weatherlink.com 1.10,2014-09-18 21:11:00,
2014-09-18 14:26:00,71.3,45.0,29.62,West,270,23.0,26.0,39,0.00,,,0.00,578,weatherlink.com 1.10,2014-09-18 21:26:00,
2014-09-18 14:41:00,70.8,45.0,29.62,WNW,292,22.0,28.0,40,0.00,,,0.00,584,weatherlink.com 1.10,2014-09-18 21:41:00,
2014-09-18 14:56:00,70.8,45.0,29.61,WNW,285,24.0,28.0,39,0.00,,,0.00,548,weatherlink.com 1.10,2014-09-18 21:56:00,
2014-09-18 15:11:00,71.4,44.0,29.61,West,271,17.0,28.0,38,0.00,,,0.00,517,weatherlink.com 1.10,2014-09-18 22:11:00,
2014-09-18 15:26:00,71.0,45.0,29.61,West,279,21.0,28.0,39,0.00,,,0.00,462,weatherlink.com 1.10,2014-09-18 22:26:00,
2014-09-18 15:41:00,70.3,44.0,29.61,West,271,27.0,33.0,39,0.00,,,0.00,427,weatherlink.com 1.10,2014-09-18 22:41:00,
2014-09-18 15:56:00,69.5,44.0,29.62,West,279,25.0,30.0,40,0.00,,,0.00,371,weatherlink.com 1.10,2014-09-18 22:56:00,
2014-09-18 16:11:00,69.5,44.0,29.63,West,267,21.0,31.0,40,0.00,,,0.00,380,weatherlink.com 1.10,2014-09-18 23:11:00,
2014-09-18 16:26:00,69.3,44.0,29.63,West,260,22.0,28.0,40,0.00,,,0.00,299,weatherlink.com 1.10,2014-09-18 23:26:00,
2014-09-18 16:41:00,69.5,43.0,29.63,West,279,22.0,29.0,39,0.00,,,0.00,359,weatherlink.com 1.10,2014-09-18 23:41:00,
2014-09-18 16:56:00,69.2,43.0,29.64,West,259,21.0,29.0,39,0.00,,,0.00,336,weatherlink.com 1.10,2014-09-18 23:56:00,
2014-09-18 17:11:00,69.5,43.0,29.64,West,279,17.0,28.0,39,0.00,,,0.00,290,weatherlink.com 1.10,2014-09-19 00:11:00,
2014-09-18 17:26:00,68.9,42.0,29.65,WNW,283,20.0,26.0,38,0.00,,,0.00,255,weatherlink.com 1.10,2014-09-19 00:26:00,
2014-09-18 17:41:00,68.5,43.0,29.65,West,275,19.0,28.0,40,0.00,,,0.00,213,weatherlink.com 1.10,2014-09-19 00:41:00,